Regional Weather Roundup
Issued by NWS

Home | Current Version | Previous Version | Text Only | Print | Product List | Glossary On
Versions: 1 2 3 4 5 6 7 8 9 10 11 12 13 14 15 16 17 18 19 20 21 22 23 24 25 26 27 28 29 30 31 32 33 34 35 36 37 38 39 40 41 42 43 44 45 46 47 48 49 50
000
ASUS43 KDTX 301701
RWRMI
MICHIGAN HOURLY REGIONAL WEATHER ROUNDUP
NATIONAL WEATHER SERVICE DETROIT/PONTIAC MI
100 PM EDT THU OCT 30 2014

NOTE: "FAIR" INDICATES FEW OR NO CLOUDS BELOW 12,000 FEET WITH NO
SIGNIFICANT WEATHER AND/OR OBSTRUCTION TO VISIBILITY.

MIZ047>049-052>055-059>063-066>070-074>076-081>083-301800-
SOUTHEAST LOWER MICHIGAN

CITY           SKY/WX    TMP DP  RH WIND       PRES   REMARKS
ADRIAN         CLOUDY    46  35  65 SW7       30.14F
ALMA           CLOUDY    47  37  67 S7        30.10F
ANN ARBOR      PTSUNNY   47  34  60 VRB3      30.12F
BAD AXE        CLOUDY    44  38  79 W6        30.10F
CARO           CLOUDY    45  36  68 CALM      30.10F
DETROIT CITY   PTSUNNY   51  33  50 CALM      30.13F
DETROIT        CLOUDY    48  34  58 W9        30.13F
FLINT          CLOUDY    47  36  65 S7        30.11F
GROSSE ILE     PTSUNNY   48  36  61 W7        30.12F
HILLSDALE      CLOUDY    46  38  71 S5        30.12F
HOWELL         CLOUDY    44  37  74 SW5       30.11F

CITY           SKY/WX    TMP DP  RH WIND       PRES   REMARKS
JACKSON        CLOUDY    47  36  65 S8        30.11F
LAMBERTVILLE   CLOUDY    50  36  57 SW3       30.14F
LANSING        CLOUDY    47  37  68 S8        30.12F
LAPEER         CLOUDY    45  33  65 W6        30.11F
MASON          CLOUDY    46  37  69 S6        30.11F
MONROE         PTSUNNY   48  36  61 NW5       30.12F
MT. CLEMENS    PTSUNNY   50  33  53 NW3       30.09F
PONTIAC        CLOUDY    47  33  58 W8        30.11F
PORT HOPE        N/A     46  35  65 VRB6      30.08F
PORT HURON     MOSUNNY   48  34  57 N5        30.11F
TRI CITIES     CLOUDY    47  37  68 SW8       30.11F
TROY           CLOUDY    49  31  49 NW3       30.13F
SAGINAW HB     CLOUDY    46  36  66 SW7       30.10F
$$
MIZ043>046-050>051-056>058-064>065-071>073-077>080-301800-
SOUTHWEST LOWER MICHIGAN

CITY           SKY/WX    TMP DP  RH WIND       PRES   REMARKS
BATTLE CREEK   CLOUDY    48  37  65 SW9       30.11F
BENTON HARBOR  PTSUNNY   49  36  61 SW13G22   30.12F
BIG RAPIDS     CLOUDY    47  40  74 SW5       30.07F
COLDWATER      CLOUDY    48  38  67 SW6       30.12F
FREMONT        CLOUDY    48  35  60 W12       30.08F
HOLLAND        CLOUDY    51  38  60 W12       30.11F
GRAND RAPIDS   CLOUDY    49  38  65 SW10      30.10F
IONIA          CLOUDY    48  38  66 SW6       30.09F
KALAMAZOO      CLOUDY    49  36  61 SW9       30.12F
LUDINGTON      PTSUNNY   49  39  68 SW9       30.08S
MARSHALL       CLOUDY    46  37  68 W7        30.11F
MOUNT PLEASANT CLOUDY    48  37  65 S5        30.08F
MUSKEGON       CLOUDY    50  36  58 SW13      30.09F
SOUTH HAVEN    CLOUDY    49  37  61 SW9G21    30.11F
$$
MIZ016>042-301800-
NORTHERN LOWER MICHIGAN

CITY           SKY/WX    TMP DP  RH WIND       PRES   REMARKS
ALPENA         CLOUDY    41  33  73 SW3       30.08F
BEAVER ISLAND  DRIZZLE   44  41  90 CALM      30.04F
BELLAIRE       CLOUDY    45  39  79 S5        30.06F
CADILLAC       CLOUDY    44  37  77 W8        30.05S
CHARLEVOIX     CLOUDY    44  40  85 S7        30.07F
FRANKFORT      CLOUDY    48  38  69 W8G17     30.06F
GAYLORD        CLOUDY    40  36  86 S6        30.04F
GRAYLING       CLOUDY    43  39  85 CALM      30.06F
HARBOR SPRINGS RAIN      42  38  84 S3        30.05F
HOUGHTON LAKE  CLOUDY    44  37  76 SW5       30.07F
MANISTEE       CLOUDY    46  36  66 SW10      30.08S
OSCODA         CLOUDY    44  35  71 SW7       30.09F
PELLSTON       CLOUDY    44  38  79 S3        30.05F
ROGERS CITY    CLOUDY    41  36  81 S5        30.08F
TRAVERSE CITY  CLOUDY    47  37  68 W3        30.05F
$$
MIZ007>008-015-301800-
EASTERN UPPER MICHIGAN

CITY           SKY/WX    TMP DP  RH WIND       PRES   REMARKS
KINROSS        CLOUDY    43  37  81 SW5       30.04S
MACKINAC ISLAN CLOUDY    42  38  83 S6        30.04F
NEWBERRY       CLOUDY    41  36  82 SW7       30.03S
S. S. MARIE    CLOUDY    43  35  73 SW6       30.03F
MUNISING         N/A     47  34  60 SW6       30.02F
$$
MIZ004>006-011>014-085-301800-
CENTRAL UPPER MICHIGAN

CITY           SKY/WX    TMP DP  RH WIND       PRES   REMARKS
MANISTIQUE     DRIZZLE   44  37  74 CALM      30.03F
ESCANABA       CLOUDY    45  32  61 W6        30.03S
MENOMINEE      CLOUDY    45  32  61 W7        30.05S
SAWYER-GWINN   CLOUDY    41  32  70 SW7       30.02S
$$
MIZ001>003-009>011-084-301800-
WESTERN UPPER MICHIGAN

CITY           SKY/WX    TMP DP  RH WIND       PRES   REMARKS
IRON MOUNTAIN  CLOUDY    41  32  70 W7        30.03R
HOUGHTON       LGT RAIN  40  37  89 W9        30.00F WCI  34
COPPER HARBOR    N/A     42  38  85 N6        30.01S
IRONWOOD       CLOUDY    37  34  87 W9        30.03S WCI  31
$$

ABBREVIATIONS USED IN REMARKS
   TC - TEMPERATURE IN CELSIUS
  WCI - WIND CHILL INDEX
   HX - HEAT INDEX
  VSB - VISIBILITY




USA.gov is the U.S. government's official web portal to all federal, state and local government web resources and services.